Location: Unspecified
(0.0000°N, 0.0000°E)
Time: 04:04:40
(UTC+02:00)

Transit 2A - Visible Passes

Search period start: 30 July 2015 00:00
Search period end: 09 August 2015 00:00
Orbit: 597 x 964 km, 66.7° (Epoch: 29 July)

Date Brightness Start Highest point End Pass type
(mag) Time Alt. Az. Time Alt. Az. Time Alt. Az.
30 Jul 7.2 20:35:02 10° NW 20:38:58 34° WSW 20:42:55 10° S visible
31 Jul 7.7 07:24:48 10° S 07:30:44 44° ESE 07:36:42 10° NE visible
01 Aug 8.3 06:51:40 10° SSE 06:56:52 28° ESE 07:02:13 10° NE visible
02 Aug 8.9 06:19:03 10° SSE 06:22:57 18° ESE 06:27:11 10° ENE visible
03 Aug 9.2 05:48:16 10° ESE 05:48:57 10° ESE 05:50:17 10° ESE visible
03 Aug 6.5 07:26:04 10° SSW 07:32:25 69° WNW 07:38:37 10° NNE visible
04 Aug 6.6 06:52:14 10° SSW 06:58:36 78° ESE 07:04:52 10° NNE visible
05 Aug 7.2 06:19:48 16° S 06:24:46 50° ESE 06:30:50 10° NE visible
06 Aug 7.9 05:48:09 22° SSE 05:50:54 32° ESE 05:56:27 10° NE visible
06 Aug 7.6 07:29:00 10° WSW 07:34:07 24° WNW 07:38:55 10° NNW visible
07 Aug 8.5 05:16:27 20° ESE 05:17:00 20° ESE 05:21:37 10° ENE visible
07 Aug 7.0 06:57:02 24° WSW 07:00:15 38° WNW 07:05:55 10° N visible
08 Aug 9.1 04:44:42 11° E 04:44:42 11° E 04:45:44 10° E visible
08 Aug 6.4 06:25:17 52° WSW 06:26:26 60° WNW 06:32:32 10° N visible
